Tracking 19242 objects as of 15-Aug-2018
HD Live streaming from Space Station
objects crossing your sky now

IRIDIUM 82

Track IRIDIUM 82 now!
10-day predictions
IRIDIUM 82 is classified as:


NORAD ID: 25467
Int'l Code: 1998-051A
Perigee: 479.7 km
Apogee: 730.5 km
Inclination: 86.4 °
Period: 96.6 minutes
Semi major axis: 6976 km
RCS: 4.1187 m2 (large)
Launch date: September 8, 1998
Source: United States (US)
Launch site: AIR FORCE WESTERN TEST RANGE (AFWTR)
aabbcc
Your satellite tracking list
Your tracking list is empty




NASA's NSSDC Master Catalog

Two Line Element Set (TLE):
1 25467U 98051A   18226.40468886  .00000822  00000-0  60049-4 0  9995
2 25467  86.4038 187.3863 0179726 322.8981  35.9928 14.89992767 49849
Source of the keplerian elements: AFSPC